Location: Dackenheim
(49.5215°N, 8.1854°E)
Time: 02:21:49
(UTC+00:00)

UWE-3 - Pass Details

Date: 22 March 2026
Orbit: 543 x 612 km, 97.9° (Epoch: 12 April)

Event Time Altitude Azimuth Distance (km) Brightness Sun altitude
Rises 02:55:26 0° 8° (N) 2,876 ? -24.0°
Reaches altitude 10° 02:57:42 10° 3° (N) 1,960 ? -23.7°
Enters shadow 03:00:59 41° 323° (NW) 878 ? -23.2°
